Home   Weather   Chengdu   Past weeks

Flag for China Past Weather in Chengdu, Sichuan, China — Yesterday and Last 2 Weeks

Now
45 °F

Fog.


Feels Like: 45 °F
Forecast: 44 / 52 °F
Wind: No wind

Location: Chengdu Airport

Current Time: Jan 19, 2017 at 2:39:23 am

Latest Report: Jan 19, 2017 at 2:00 am


Visibility: 2 mi

Pressure: 30.33 "Hg

Humidity: 87%

Dew Point: 41 °F

Location of ChengduLocation

Past Weather in Chengdu — Graph

°F

Chengdu Temperature Yesterday

Maximum temperature yesterday: 46 °F (at 12:00 am)
Minimum temperature yesterday: 43 °F (at 8:00 am)
Average temperature yesterday: 45 °F

High & Low Weather Summary for the Past Weeks

 TemperatureHumidityPressure
High63 °F (Jan 5, 4:00 pm)100% (Jan 4, 7:00 am)30.36 "Hg (Jan 4, 7:00 am)
Low34 °F (Jan 12, 8:00 am)33% (Jan 12, 4:00 pm)29.92 "Hg (Jan 6, 3:00 pm)
Average48 °F79%30.15 "Hg
* Reported Jan 4 1:00 am — Jan 19 1:00 am, Chengdu, Weather by CustomWeather, © 2017

Note: Actual official high and low records may vary slightly from our data, if they occured in-between our weather recording intervals... More about our weather records

Advertising

Chengdu Weather History for the Previous 24 Hours

Scroll right to see more
 ConditionsComfort  
Time TempWeatherWind HumidityBarometerVisibility
1:00 am
Thu, Jan 19
45 °FFog.1 mph81%30.33 "Hg2 mi
12:00 am45 °FFog.3 mph81%30.33 "Hg2 mi
11:00 pm
Wed, Jan 18
45 °FFog.3 mph87%30.33 "Hg2 mi
10:00 pm45 °FFog.6 mph87%30.30 "Hg2 mi
9:00 pm46 °FFog.6 mph87%30.27 "Hg2 mi
8:00 pm46 °FFog.6 mph82%30.24 "Hg2 mi
7:00 pm46 °FFog.6 mph87%30.21 "Hg2 mi
6:00 pm46 °FFog.3 mph87%30.18 "Hg1 mi
5:00 pm46 °FFog.3 mph87%30.15 "Hg1 mi
4:00 pm46 °FFog.1 mph87%30.15 "Hg1 mi
3:00 pm46 °FFog.1 mph87%30.15 "Hg1 mi
2:00 pm46 °FFog.3 mph87%30.18 "Hg1 mi
1:00 pm46 °FLight rain. Fog.No wind87%30.21 "Hg1 mi
12:00 pm45 °FLight rain. Fog.No wind93%30.27 "Hg1 mi
11:00 am45 °FLight rain. Fog.No wind93%30.27 "Hg1 mi
10:00 am43 °FLight rain. Fog.No wind100%30.27 "Hg1 mi
9:00 am43 °FLight rain. Fog.1 mph100%30.27 "Hg1 mi
8:00 am43 °FLight rain. Fog.1 mph100%30.27 "Hg1 mi
7:00 am45 °FLight rain. Fog.1 mph87%30.24 "Hg2 mi
6:00 am45 °FLight rain. Fog.No wind93%30.24 "Hg2 mi
5:00 am45 °FLight rain. Fog.No wind93%30.24 "Hg2 mi
4:00 am45 °FLight rain. Fog.No wind87%30.24 "Hg3 mi
3:00 am45 °FLight rain. Fog.1 mph87%30.27 "Hg3 mi
2:00 am45 °FLight rain. Fog.3 mph81%30.27 "Hg3 mi
Weather by CustomWeather, © 2017

See weather overviewHow to use our weather pages